Location: Blankensee
(53.5126°N, 14.3055°E)
Time: 18:54:15
(UTC+00:00)

Cosmos 2219 - Pass Details

Date: 08 August 2020
Orbit: 834 x 860 km, 71.1° (Epoch: 20 September)

Event Time Altitude Azimuth Distance (km) Brightness Sun altitude
Exits shadow 00:32:21 30° 182° (S) 1,457 3.9 -18.1°
Maximum altitude 00:35:01 60° 115° (ESE) 956 3.4 -18.0°
Drops below altitude 10° 00:40:33 10° 37° (NE) 2,456 6.8 -17.7°
Sets 00:43:01 0° 34° (NE) 3,395 8.0 -17.5°
